Regional Weather Roundup
Issued by NWS

Home | Current Version | Previous Version | Graphics & Text | Print | Product List | Glossary On
Versions: 1 2 3 4 5 6 7 8 9 10 11 12 13 14 15 16 17 18 19 20 21 22 23 24 25 26 27 28 29 30 31 32 33 34 35 36 37 38 39 40 41 42 43 44 45 46 47 48 49 50
000
ASUS43 KFSD 212202
RWRSD

WEATHER ROUNDUP FOR SOUTH DAKOTA
NATIONAL WEATHER SERVICE SIOUX FALLS SD
500 PM CDT SUN MAY 21 2017

NOTE: "FAIR" INDICATES FEW OR NO CLOUDS BELOW 12,000 FEET WITH NO
SIGNIFICANT WEATHER AND/OR OBSTRUCTIONS TO VISIBILITY.


SDZ001>005-009-010-012>017-212300-
NORTHWEST AND NORTH CENTRAL SOUTH DAKOTA

CITY           SKY/WX    TMP DP  RH WIND       PRES   REMARKS
BUFFALO          N/A     57  46  66 W15       29.98F
FAITH            N/A     57  45  64 NW25G33   30.02R
MOBRIDGE       MOSUNNY   72  28  19 NW16G25   29.89F
$$

SDZ012>016-024>037-041>051-057-063-072>074-212300-
SOUTHWEST AND SOUTH CENTRAL SOUTH DAKOTA

CITY           SKY/WX    TMP DP  RH WIND       PRES   REMARKS
RAPID CTY ARPT PTSUNNY   56  42  59 NW21G28   30.08R
PIERRE         SUNNY     70  34  26 NW12G17   29.96F
CUSTER         LGT RAIN  45  36  70 N14G40    30.15R
PHILIP         CLOUDY    66  38  35 W16G24    30.01F
PINE RIDGE     CLOUDY    61  41  47 N16       30.07F
SPEARFISH      FAIR      55  43  62 CALM      30.11F
WINNER         FAIR      68  39  34 NW9       30.01F
$$

SDZ004>011-016>023-039-040-212300-
NORTHEAST SOUTH DAKOTA

CITY           SKY/WX    TMP DP  RH WIND       PRES   REMARKS
ABERDEEN       PTSUNNY   61  38  42 VRB5      29.94F
WATERTOWN      CLOUDY    55  40  56 NW23      29.95S
BROOKINGS      MOSUNNY   54  41  61 NW20G29   29.96F
SISSETON         N/A     53  41  63 N22G29    29.92F
$$

SDZ017-020-022-023-036>040-048>070-212300-
SOUTHEAST SOUTH DAKOTA

CITY           SKY/WX    TMP DP  RH WIND       PRES   REMARKS
SIOUX FALLS    PTSUNNY   58  43  57 NW22G30   30.00F
HURON          SUNNY     66  40  38 NW9       29.95F
CHAMBERLAIN    SUNNY     69  38  32 W12G18    29.99F
MITCHELL       SUNNY     64  42  44 VRB7      29.99F
YANKTON        SUNNY     61  42  49 W16G23    30.03F
$$

ABBREVIATIONS USED IN REMARKS
   TC - TEMPERATURE IN CELSIUS
  WCI - WIND CHILL INDEX
   HX - HEAT INDEX
  VSB - VISIBILITY





USA.gov is the U.S. government's official web portal to all federal, state and local government web resources and services.